C/2019 A5 ( PanSTARRS )

Japanese version
Home page
Updated on January 18, 2019

---------------------------------------------------------------------

* Profile

Discovery Date January 4, 2019
Magnitude 20.4 mag
Discoverer Pan-STARRS 1 telescope (Haleakala)

* Orbital Elements

T 2017 Oct. 13.97678 TT                                 MPCW
q   4.5372526            (2000.0)            P               Q
                   Peri.  287.08194     +0.01480129     -0.91025414
                   Node   149.96859     +0.87634901     +0.21106986
e   1.0            Incl.   55.76996     -0.48144921     +0.35621188
From 20 observations 2019 Jan. 4-17.

* Magnitudes Graph

        m1 = 9.5 + 5 log d + 10.0 log r

---------------------------------------------------------------------

The orbital elements are published on M.P.E.C. 2019-B45.
The magnitudes graphs are made with Comet for Windows.

---------------------------------------------------------------------

Copyright(C) Seiichi Yoshida (comet@aerith.net). All rights reserved.